Regional Weather Roundup
Issued by NWS

Home | Current Version | Previous Version | Graphics & Text | Print | Product List | Glossary On
Versions: 1 2 3 4 5 6 7 8 9 10 11 12 13 14 15 16 17 18 19 20 21 22 23 24 25 26 27 28 29 30 31 32 33 34 35 36 37 38 39 40 41 42 43 44 45 46 47 48 49 50
000
ASUS43 KDMX 271901
RWRIA

WEATHER ROUNDUP FOR IOWA
NATIONAL WEATHER SERVICE DES MOINES IA
200 PM CDT THU APR 27 2017

NOTE: "FAIR" INDICATES FEW OR NO CLOUDS BELOW 12,000 FEET WITH NO
SIGNIFICANT WEATHER AND/OR OBSTRUCTIONS TO VISIBILITY.

* - THESE STATIONS ARE NOT NWS STATIONS...THUS NOT UNDER NWS
QUALITY CONTROL.  THEY ALSO DO NOT REPORT WEATHER SUCH
AS PRECIPITATION OR FOG.

IAZ001>003-012>014-020>022-031>034-043>046-272000-
   NORTHWEST IOWA

CITY           SKY/WX    TMP DP  RH WIND       PRES   REMARKS
CARROLL *      CLOUDY    46  34  61 NW13G20   29.69F
CHEROKEE *     CLOUDY    40  31  72 W13       29.71S WCI  32
DENISON *      MOSUNNY   48  34  57 W9G17     29.70F
LE MARS *      CLOUDY    45  32  61 W10G20    29.72S
ORANGE CITY *  CLOUDY    41  34  75 NW12G20   29.69R
SHELDON *      CLOUDY    37  30  75 NW16      29.67S WCI  28
SIOUX CITY     MOSUNNY   47  33  58 N15       29.71S
SPENCER        CLOUDY    39  28  64 NW17G24   29.68S WCI  30
STORM LAKE *     N/A     37  30  75 W15       29.69S WCI  28
$$

IAZ055>058-069>071-079>083-090>094-272000-
   SOUTHWEST IOWA

CITY           SKY/WX    TMP DP  RH WIND       PRES   REMARKS
ATLANTIC *     MOSUNNY   50  34  53 W12G20    29.71S
AUDUBON *      SUNNY     52  37  58 W9        29.70F
CLARINDA *     SUNNY     55  37  50 W10G21    29.73F
COUNCIL BLFS * MOSUNNY   48  34  57 NW9       29.72F
CRESTON *      PTSUNNY   52  36  54 W15       29.72S
HARLAN  *      MOSUNNY   50  34  53 W13       29.73F
LAMONI         MOSUNNY   55  40  56 W13G21    29.72S
RED OAK *      MOSUNNY   54  36  50 W10G16    29.71F
SHENANDOAH *   SUNNY     55  36  47 W12       29.72F
$$

IAZ047>049-059>061-072>074-084-272000-
   CENTRAL IOWA

CITY           SKY/WX    TMP DP  RH WIND       PRES   REMARKS
AMES           CLOUDY    41  32  70 W17G26    29.71R
ANKENY *       CLOUDY    46  34  61 W13G22    29.71S
BOONE *        CLOUDY    39  32  75 W13G21    29.70R WCI  32
CHARITON *     PTSUNNY   50  39  66 W15       29.71R
DES MOINES     PTSUNNY   49  33  54 W14G20    29.70S
GRINNELL*      CLOUDY    42  32  66 W15G21    29.71R
KNOXVILLE *    PTSUNNY   48  36  61 W10       29.69F
MARSHALLTOWN   CLOUDY    40  31  70 W18       29.69R WCI  31
NEWTON *       CLOUDY    43  32  65 W17G23    29.70R
PELLA *        CLOUDY    46  35  66 W14       29.72S
PERRY *        CLOUDY    47  32  56 NW15G25   29.70S
$$

IAZ004>006-015-016-023>025-035-036-272000-
   NORTH CENTRAL IOWA

CITY           SKY/WX    TMP DP  RH WIND       PRES   REMARKS
ALGONA *       CLOUDY    37  28  70 W16G24    29.67S WCI  28
CLARION *      CLOUDY    37  30  75 W21       29.68R WCI  27
ESTHERVILLE    CLOUDY    36  29  75 NW20      29.66S WCI  25
FORT DODGE *   CLOUDY    37  27  65 W10G20    29.70S WCI  30
MASON CITY     CLOUDY    35  27  72 W16       29.66R WCI  25
FOREST CITY *  CLOUDY    36  30  80 NW16      29.65S WCI  26
WEBSTER CITY * CLOUDY    37  30  75 W18G26    29.67S WCI  27
IOWA FALLS *   CLOUDY    40  30  68 W23       29.69R WCI  29
$$

IAZ007>011-017>019-026>030-037>042-050>054-066-272000-
   NORTHEAST IOWA

CITY           SKY/WX    TMP DP  RH WIND       PRES   REMARKS
CEDAR RAPIDS   CLOUDY    40  33  76 W20       29.67R WCI  30
CHARLES CITY * CLOUDY    39  30  70 W17G25    29.64R WCI  30
CLINTON *      CLOUDY    41  36  82 W23       29.67R
DECORAH *      CLOUDY    39  30  70 W8G21     29.59R WCI  34
DUBUQUE        CLOUDY    40  33  76 W22G28    29.62R WCI  30
MONTICELLO *   CLOUDY    41  32  70 W15G25    29.65R
WATERLOO       CLOUDY    40  28  62 W18       29.66R WCI  31
$$

IAZ064-065-067-068-078-272000-
   EAST CENTRAL IOWA

CITY           SKY/WX    TMP DP  RH WIND       PRES   REMARKS
DAVENPORT      CLOUDY    41  34  76 W20       29.68R
IOWA CITY      CLOUDY    43  34  70 W13G24    29.71R
MUSCATINE *    CLOUDY    43  34  70 W16G24    29.71R
QUAD CITIES    CLOUDY    44  34  67 W23G29    29.68R
$$

IAZ062-063-075>077-085>089-095>099-272000-
   SOUTHEAST IOWA

CITY           SKY/WX    TMP DP  RH WIND       PRES   REMARKS
BURLINGTON     CLOUDY    46  39  76 W8        29.72R
FAIRFIELD *    CLOUDY    45  36  70 SW14G20   29.71R
FORT MADISON * CLOUDY    48  43  81 SW12      29.74R
KEOKUK *       CLOUDY    48  39  71 W18       29.73R
OSKALOOSA *    CLOUDY    46  36  68 W16G22    29.71R
OTTUMWA        CLOUDY    48  37  65 W12       29.71R
WASHINGTON *   CLOUDY    45  36  70 W17       29.72S
$$

ABBREVIATIONS USED IN REMARKS
   TC - TEMPERATURES IN CELSIUS
  WCI - WIND CHILL INDEX
   HX - HEAT INDEX
  VSB - VISIBILITY
$$




USA.gov is the U.S. government's official web portal to all federal, state and local government web resources and services.